Temp
10 9 9 9 8 8 8 8 8 7 7 7 7 7 7 7 6 6 6 5 5 4 4 3 3 3 2 2 2 1 1 1 1 1 1 1 1 1 1 0 0 -0 -0 -0 -1 -1 -1 -1 -1 -1 -1 -1 -1 -2 -2 -2 -2 -2 -2 -2 -2 -2 -2 -2 -3 -3 -3 -2 -2
10 10 9 9 8 8 8 8 7 7 7 7 7 7 7 6 6 6 5 5 5 4 4 4 3 3 2 2 2 2 1 1 1 1 1 1 1 1 1 0 -0 -0 -0 -1 -1 -1 -1 -1 -1 -1 -2 -2 -2 -2 -2 -2 -2 -2 -2 -2 -2 -2 -2 -3 -3 -3 -3 -2 -2
10 10 9 9 9 8 8 8 7 7 7 6 6 6 6 6 6 6 5 5 5 4 4 4 3 3 3 2 2 1 1 1 1 1 1 1 1 1 0 0 -0 -0 -1 -1 -1 -1 -1 -1 -1 -2 -2 -2 -2 -2 -2 -2 -2 -3 -3 -3 -3 -3 -3 -3 -3 -3 -3 -3 -3
10 10 10 9 9 8 8 8 7 7 6 6 6 6 6 6 6 5 5 5 4 4 4 3 3 3 3 2 2 1 1 1 1 1 1 1 0 0 0 -0 -0 -1 -1 -1 -1 -1 -1 -1 -2 -2 -2 -2 -2 -2 -2 -3 -3 -3 -3 -3 -3 -3 -3 -4 -3 -3 -3 -3 -3
10 10 10 9 9 9 8 8 7 7 7 6 6 6 6 6 5 5 5 4 4 4 4 3 3 3 2 2 2 2 1 1 1 1 0 0 0 0 -0 -0 -1 -1 -1 -1 -1 -1 -1 -2 -2 -2 -2 -2 -2 -2 -3 -3 -3 -3 -3 -3 -3 -4 -4 -4 -4 -3 -3 -3 -3
10 10 10 9 9 9 8 8 8 7 7 6 6 6 5 5 5 5 4 4 4 4 4 3 3 3 2 2 2 1 1 1 1 0 0 0 0 -0 -0 -0 -1 -1 -1 -1 -1 -1 -2 -2 -2 -2 -2 -2 -3 -3 -3 -3 -3 -4 -4 -4 -4 -4 -4 -4 -4 -3 -3 -3 -3
11 10 10 9 9 9 8 8 8 7 7 6 6 6 5 5 5 5 4 4 4 4 3 3 3 3 2 2 2 1 1 1 0 0 0 -0 -0 -0 -0 -1 -1 -1 -1 -2 -2 -2 -2 -2 -2 -2 -2 -3 -3 -3 -3 -4 -4 -4 -4 -4 -4 -4 -4 -4 -4 -3 -3 -3 -3
10 10 10 10 9 9 8 8 7 7 7 7 6 6 6 5 5 5 4 4 4 3 3 3 3 3 2 2 2 1 1 1 0 0 0 -0 -0 -0 -0 -1 -1 -1 -2 -2 -2 -2 -2 -2 -2 -2 -3 -3 -3 -3 -4 -4 -4 -4 -4 -4 -4 -4 -4 -4 -4 -3 -3 -3 -3
10 10 10 10 9 8 8 7 7 7 7 7 6 6 6 5 5 5 4 4 4 3 3 3 3 3 2 2 2 2 1 1 1 0 -0 -0 -0 -0 -0 -1 -1 -1 -2 -2 -2 -2 -2 -2 -2 -3 -3 -3 -3 -4 -4 -4 -4 -4 -4 -4 -4 -4 -4 -4 -4 -4 -4 -3 -3
10 10 9 9 9 8 8 7 7 7 7 6 6 6 6 6 5 5 5 4 4 3 3 3 3 2 2 2 2 2 1 1 1 0 0 -0 -0 -0 -1 -1 -1 -1 -2 -2 -2 -2 -2 -2 -3 -3 -3 -3 -4 -4 -4 -4 -4 -4 -4 -4 -4 -4 -4 -4 -4 -4 -4 -4 -4
10 10 9 9 9 8 8 7 7 6 6 6 6 6 6 5 5 5 4 4 4 3 3 3 3 2 2 2 2 1 1 1 1 0 0 -0 -0 -0 -1 -1 -1 -1 -1 -2 -2 -2 -3 -3 -3 -3 -3 -4 -4 -4 -4 -4 -4 -4 -4 -4 -4 -4 -4 -4 -4 -4 -4 -4 -4
10 9 9 9 8 8 7 7 7 6 6 6 6 6 6 5 5 5 4 4 3 3 3 3 3 2 2 2 2 1 1 1 1 0 0 -0 -0 -0 -1 -1 -1 -1 -2 -2 -2 -3 -3 -3 -3 -3 -4 -4 -4 -4 -4 -4 -4 -4 -4 -5 -5 -5 -4 -4 -4 -4 -4 -4 -4
10 9 9 9 8 8 7 7 6 6 6 6 5 5 5 5 5 4 4 4 3 3 3 3 2 2 2 2 1 1 1 1 0 0 0 -0 -0 -1 -1 -1 -1 -1 -2 -2 -3 -3 -3 -3 -4 -4 -4 -4 -4 -4 -4 -4 -4 -4 -5 -5 -5 -5 -4 -4 -4 -4 -4 -4 -4
9 9 9 8 8 7 7 6 6 6 6 5 5 5 5 5 4 4 4 3 3 3 3 2 2 2 1 1 1 1 1 0 0 -0 -0 -0 -1 -1 -1 -1 -2 -2 -2 -3 -3 -3 -3 -4 -4 -4 -4 -4 -4 -4 -4 -4 -4 -4 -5 -5 -5 -5 -5 -4 -4 -4 -4 -4 -4
9 9 8 8 8 7 7 6 6 6 5 5 5 5 4 4 4 4 4 3 3 3 2 2 2 1 1 1 1 0 0 0 -0 -0 -0 -1 -1 -1 -2 -2 -2 -2 -3 -3 -3 -3 -3 -4 -4 -4 -4 -4 -4 -4 -4 -4 -4 -4 -5 -5 -5 -5 -5 -5 -4 -4 -4 -4 -4
9 9 8 8 8 7 7 6 6 5 5 5 5 4 4 4 4 3 3 3 3 2 2 2 1 1 1 0 0 -0 -0 -0 -1 -1 -1 -1 -1 -2 -2 -2 -2 -3 -3 -3 -3 -3 -3 -4 -4 -4 -4 -4 -4 -4 -4 -4 -4 -4 -5 -5 -5 -5 -5 -5 -5 -5 -5 -5 -5
9 9 8 8 8 7 7 6 6 5 5 5 4 4 4 4 3 3 3 3 2 2 2 1 1 1 0 -0 -0 -1 -1 -1 -1 -1 -1 -1 -2 -2 -2 -2 -3 -3 -3 -3 -3 -3 -3 -4 -4 -4 -4 -4 -4 -4 -4 -4 -4 -4 -5 -5 -5 -5 -5 -5 -5 -5 -5 -5 -5
9 9 8 8 8 7 7 6 6 5 5 5 4 4 4 3 3 3 3 3 2 2 2 1 1 0 -0 -0 -1 -1 -1 -1 -1 -1 -2 -2 -2 -2 -2 -2 -3 -3 -3 -3 -3 -3 -3 -4 -4 -4 -4 -4 -4 -4 -4 -4 -4 -5 -5 -5 -5 -5 -5 -5 -5 -5 -5 -5 -5
9 9 8 8 7 7 7 6 6 5 5 5 4 4 3 3 3 3 3 2 2 2 1 1 1 0 -0 -1 -1 -1 -1 -1 -2 -2 -2 -2 -2 -2 -2 -2 -3 -3 -3 -3 -3 -3 -4 -4 -4 -4 -4 -4 -5 -5 -5 -5 -5 -5 -5 -5 -5 -5 -5 -5 -5 -5 -5 -5 -5
9 9 8 8 7 7 7 6 6 5 5 4 4 4 3 3 3 3 2 2 2 1 1 1 1 0 -0 -1 -1 -1 -1 -2 -2 -2 -2 -2 -2 -2 -2 -2 -3 -3 -3 -3 -3 -3 -4 -4 -4 -4 -4 -5 -5 -5 -5 -5 -5 -5 -5 -5 -5 -5 -5 -5 -5 -5 -5 -5 -5
9 8 8 8 7 7 7 6 6 5 5 4 4 4 3 3 3 2 2 2 2 1 1 1 0 0 -0 -0 -1 -1 -1 -2 -2 -2 -2 -2 -2 -2 -2 -3 -3 -3 -3 -3 -3 -4 -4 -4 -4 -4 -5 -5 -5 -5 -5 -5 -5 -5 -5 -5 -5 -5 -5 -5 -5 -5 -5 -5 -5
8 8 8 7 7 7 6 6 6 5 5 4 4 4 3 3 2 2 2 2 1 1 1 1 0 0 -0 -0 -1 -1 -1 -2 -2 -2 -2 -2 -2 -3 -3 -3 -3 -3 -3 -3 -4 -4 -4 -4 -4 -5 -5 -5 -5 -5 -5 -5 -5 -5 -5 -5 -5 -5 -5 -5 -5 -5 -5 -5 -5
8 8 7 7 7 6 6 6 5 5 5 4 4 4 3 3 3 2 2 2 1 1 1 1 0 0 -0 -1 -1 -1 -1 -2 -2 -2 -2 -2 -3 -3 -3 -3 -3 -3 -3 -4 -4 -4 -4 -4 -5 -5 -5 -5 -5 -5 -5 -5 -5 -5 -5 -5 -5 -6 -6 -6 -6 -6 -6 -6 -6
7 7 7 7 6 6 6 5 5 5 5 4 4 4 3 3 2 2 2 2 1 1 1 1 0 0 -0 -1 -1 -1 -2 -2 -2 -2 -2 -3 -3 -3 -3 -3 -3 -3 -4 -4 -4 -4 -4 -5 -5 -5 -5 -5 -5 -5 -5 -5 -5 -5 -5 -5 -6 -6 -6 -6 -6 -6 -6 -6 -6
6 6 6 6 6 6 6 5 5 5 5 4 4 4 3 3 2 2 2 1 1 1 1 0 0 -0 -0 -1 -1 -1 -2 -2 -2 -2 -2 -3 -3 -3 -3 -3 -4 -4 -4 -4 -4 -4 -4 -5 -5 -5 -5 -5 -5 -5 -5 -5 -5 -5 -5 -5 -6 -6 -6 -6 -6 -6 -6 -6 -6
6 6 6 6 6 5 5 5 5 5 4 4 4 4 3 3 3 2 2 1 1 1 0 0 -0 -0 -1 -1 -1 -2 -2 -2 -2 -2 -3 -3 -3 -3 -4 -4 -4 -4 -4 -4 -4 -4 -4 -4 -5 -5 -5 -5 -5 -5 -5 -6 -6 -6 -6 -6 -6 -6 -6 -6 -6 -6 -6 -6 -6
6 6 6 5 5 5 5 5 5 4 4 4 4 3 3 3 3 2 2 1 1 1 0 -0 -0 -1 -1 -1 -1 -2 -2 -2 -2 -3 -3 -3 -3 -3 -4 -4 -4 -4 -4 -4 -4 -4 -4 -4 -4 -5 -5 -5 -5 -5 -6 -6 -6 -6 -6 -6 -6 -6 -6 -6 -6 -6 -6 -6 -6
7 6 6 5 5 5 4 4 4 4 4 4 4 3 3 3 2 2 2 1 1 1 0 -0 -0 -1 -1 -1 -1 -2 -2 -2 -3 -3 -3 -3 -3 -4 -4 -4 -4 -4 -4 -4 -4 -4 -4 -4 -4 -4 -4 -5 -5 -5 -5 -6 -6 -6 -6 -6 -6 -6 -6 -6 -6 -6 -6 -6 -6
6 6 6 5 5 4 4 4 4 4 4 4 4 3 3 3 2 2 2 1 1 1 0 -0 -1 -1 -1 -1 -2 -2 -2 -3 -3 -3 -3 -3 -4 -4 -4 -4 -4 -4 -4 -4 -4 -4 -3 -3 -3 -3 -4 -5 -5 -6 -6 -6 -6 -6 -6 -6 -6 -6 -6 -6 -6 -6 -6 -6 -6
6 6 5 5 5 4 4 4 4 3 3 3 3 3 3 2 2 2 1 1 1 0 0 -0 -1 -1 -1 -2 -2 -2 -3 -3 -3 -3 -3 -3 -4 -4 -4 -4 -4 -4 -4 -4 -4 -4 -3 -3 -3 -3 -3 -4 -5 -5 -6 -5 -6 -6 -6 -6 -6 -6 -6 -6 -6 -6 -6 -6 -5
6 6 5 5 4 4 4 4 3 3 3 3 3 3 3 2 2 2 1 1 1 0 0 -0 -1 -1 -1 -2 -2 -2 -3 -3 -3 -3 -3 -3 -4 -4 -4 -4 -4 -4 -4 -4 -4 -4 -3 -3 -3 -3 -3 -3 -4 -5 -5 -5 -5 -5 -6 -6 -6 -6 -6 -6 -6 -6 -6 -5 -5
6 6 5 5 4 4 4 4 3 3 3 3 3 3 3 2 2 2 1 1 1 0 -0 -1 -1 -1 -2 -2 -2 -2 -2 -3 -3 -3 -3 -3 -4 -4 -4 -4 -4 -4 -4 -4 -4 -3 -3 -3 -3 -3 -2 -2 -3 -4 -5 -5 -5 -5 -5 -6 -6 -6 -6 -6 -6 -5 -5 -5 -5
6 6 5 5 4 4 4 3 3 3 3 3 3 3 2 2 2 1 1 1 0 -0 -0 -1 -1 -1 -2 -2 -2 -2 -2 -2 -3 -3 -3 -3 -3 -4 -4 -4 -4 -4 -4 -4 -4 -3 -3 -3 -3 -2 -2 -2 -2 -3 -4 -5 -5 -5 -5 -5 -5 -6 -6 -6 -5 -5 -5 -5 -5
6 6 5 5 5 4 4 4 3 3 3 3 3 2 2 2 2 1 1 0 0 -0 -1 -1 -1 -1 -1 -2 -2 -2 -2 -2 -2 -3 -3 -3 -3 -3 -4 -4 -4 -4 -4 -4 -4 -3 -3 -3 -3 -2 -2 -2 -2 -3 -4 -5 -5 -5 -5 -5 -5 -5 -5 -5 -5 -5 -5 -5 -4
7 6 6 5 5 4 4 4 3 3 3 3 2 2 2 2 1 1 1 0 -0 -0 -1 -1 -1 -1 -1 -1 -2 -2 -2 -2 -2 -2 -3 -3 -3 -3 -3 -3 -3 -3 -3 -3 -3 -3 -3 -3 -2 -2 -2 -2 -1 -2 -3 -4 -4 -5 -5 -5 -5 -5 -5 -5 -5 -5 -4 -4 -4
7 7 6 6 5 5 5 4 4 4 3 3 2 2 2 1 1 1 1 0 0 -0 -1 -1 -1 -1 -1 -1 -2 -2 -2 -2 -2 -2 -2 -3 -3 -3 -3 -3 -3 -3 -3 -3 -3 -3 -3 -3 -2 -2 -2 -2 -1 -2 -3 -4 -4 -4 -4 -4 -4 -4 -4 -4 -4 -4 -4 -4 -4
8 7 7 7 6 6 5 5 4 4 3 3 3 2 2 1 1 1 1 0 0 -0 -0 -1 -1 -1 -1 -1 -1 -2 -2 -2 -2 -2 -2 -2 -3 -3 -3 -3 -3 -3 -3 -3 -3 -3 -3 -3 -2 -2 -2 -2 -1 -1 -2 -3 -3 -4 -3 -3 -3 -3 -3 -3 -3 -3 -3 -3 -3
8 7 7 7 7 6 6 5 5 4 4 3 3 3 2 2 1 1 1 0 0 -0 -0 -0 -1 -1 -1 -1 -1 -1 -2 -2 -2 -2 -2 -2 -2 -2 -3 -3 -3 -3 -3 -3 -3 -3 -3 -3 -2 -2 -2 -2 -1 -1 -1 -2 -2 -3 -3 -3 -3 -3 -3 -3 -3 -3 -3 -3 -3
7 7 7 7 6 6 6 6 5 5 4 4 3 3 2 2 2 1 1 1 0 0 -0 -0 -0 -1 -1 -1 -1 -1 -1 -2 -2 -2 -2 -2 -2 -2 -2 -3 -3 -3 -3 -3 -3 -3 -3 -3 -2 -2 -2 -2 -1 -1 -1 -1 -2 -2 -2 -2 -2 -2 -2 -2 -2 -2 -2 -3 -3
7 7 7 7 6 6 6 6 6 5 5 4 4 3 3 2 2 2 1 1 0 0 0 -0 -0 -0 -0 -1 -1 -1 -1 -1 -1 -2 -2 -2 -2 -2 -2 -2 -3 -3 -3 -3 -3 -3 -3 -3 -2 -2 -2 -2 -1 -1 -1 -1 -1 -1 -1 -2 -2 -2 -2 -2 -2 -2 -2 -2 -2
7 7 7 6 6 6 6 6 6 5 5 4 4 4 3 3 2 2 1 1 1 0 0 0 -0 -0 -0 -0 -1 -1 -1 -1 -1 -1 -1 -2 -2 -2 -2 -2 -2 -3 -3 -3 -3 -3 -3 -3 -2 -2 -2 -1 -1 -1 -1 -1 -1 -1 -1 -1 -2 -2 -2 -2 -2 -2 -2 -2 -2
Height
752 752 752 752 753 753 753 753 754 754 755 756 756 757 757 758 758 758 759 759 759 760 760 761 762 762 763 763 764 765 766 767 767 768 770 771 772 773 774 775 776 777 777 779 780 781 782 783 784 784 785 785 786 787 788 788 789 790 792 793 794 796 797 799 799 800 801 802 802
750 750 750 750 751 751 751 751 752 752 753 753 754 755 755 756 756 756 756 757 757 757 758 758 759 760 760 761 762 762 763 764 765 766 767 768 769 770 771 772 773 774 775 777 778 779 780 781 782 782 783 783 784 785 786 787 787 788 790 791 793 794 796 797 797 798 799 800 801
748 748 748 749 749 749 749 749 750 750 751 751 752 752 753 753 753 754 754 754 755 755 756 756 757 757 758 758 759 760 761 762 763 764 765 766 767 767 768 769 770 772 773 774 776 777 777 778 779 780 780 781 782 783 784 785 785 787 788 789 791 792 794 795 796 797 797 798 798
747 747 747 747 747 747 747 747 748 748 749 750 750 751 751 752 752 752 752 753 753 753 754 754 755 755 756 757 757 757 758 760 761 762 763 764 764 765 766 767 767 769 770 772 773 774 775 776 777 777 778 778 779 780 781 782 783 784 786 787 789 790 792 792 794 795 795 796 796
745 745 745 745 745 745 746 746 746 747 747 748 749 749 749 750 750 750 751 751 751 752 752 752 753 754 754 755 755 756 756 757 758 760 761 762 763 763 763 764 765 766 767 768 770 771 772 774 774 775 775 776 777 777 778 780 781 782 784 785 787 788 789 791 792 792 793 793 794
743 743 743 743 743 744 744 745 745 746 746 747 747 747 747 748 748 748 748 749 749 749 750 751 751 752 752 752 753 753 754 754 755 756 758 759 761 761 762 762 762 763 764 766 767 768 770 771 772 772 773 773 774 775 776 777 779 780 782 783 784 786 787 788 789 790 791 791 792
742 742 742 742 742 742 743 743 744 745 745 745 745 745 745 746 746 746 746 746 747 747 747 748 748 748 749 749 750 751 751 751 752 752 754 755 757 759 759 759 760 761 762 762 764 766 767 768 769 769 770 771 772 772 773 775 776 777 779 780 782 783 785 786 787 787 788 789 789
741 741 741 741 741 741 742 742 742 743 743 743 743 743 743 743 743 743 744 744 744 744 744 744 744 744 745 745 746 747 747 748 748 749 750 751 753 755 756 757 757 758 759 760 761 762 764 765 766 766 767 768 769 769 770 772 773 775 776 778 779 781 782 783 784 785 786 786 787
740 740 740 740 740 740 740 740 741 741 741 741 740 740 740 741 741 741 741 741 740 740 740 740 740 740 741 741 742 742 743 744 745 745 746 747 748 750 752 753 754 755 756 757 758 759 760 762 762 763 764 765 765 766 767 769 771 772 774 775 777 778 779 781 782 782 783 784 785
739 739 739 739 739 738 738 738 738 738 738 738 737 737 738 738 737 737 737 737 737 737 737 736 736 736 736 736 737 738 738 740 741 742 742 743 744 745 747 748 750 751 752 753 754 756 757 758 759 760 761 762 762 763 765 766 768 770 771 773 774 776 777 778 779 780 781 782 782
737 737 737 737 737 737 737 737 736 736 736 735 735 735 735 735 735 735 735 735 735 735 734 734 733 733 732 732 732 733 734 735 737 738 739 740 741 742 743 744 745 747 748 750 751 752 754 755 756 757 758 759 760 761 762 764 766 767 769 770 772 773 775 776 777 778 779 779 780
736 736 736 736 736 736 735 735 734 734 734 733 733 733 733 733 733 733 734 734 733 733 733 733 733 733 732 730 730 730 731 732 733 734 736 737 737 739 740 741 742 744 745 746 748 749 751 752 753 754 755 757 758 759 760 762 763 765 767 768 770 771 772 773 774 775 776 777 778
735 735 735 735 735 734 734 734 733 733 733 732 732 733 733 733 733 734 734 733 733 733 733 734 734 734 733 732 732 732 731 731 732 732 733 734 735 737 738 739 741 742 743 744 746 747 748 749 750 752 753 754 756 757 758 759 761 762 764 766 767 768 770 771 772 773 774 775 775
733 733 733 733 733 733 733 732 732 732 732 732 732 732 733 733 733 733 733 733 732 733 733 734 734 734 734 734 734 734 733 733 733 733 733 734 734 735 736 737 739 741 742 743 744 745 746 747 748 749 751 752 753 754 756 757 758 760 761 763 764 766 767 768 769 771 772 772 773
732 732 732 732 732 732 732 731 731 731 731 731 731 731 732 732 732 732 732 732 732 732 732 733 732 732 732 733 733 734 734 734 734 734 734 734 734 735 736 737 738 740 741 742 743 744 745 746 747 747 749 750 751 752 753 754 756 757 758 760 761 762 764 766 767 768 769 770 771
730 730 730 730 730 730 729 729 728 728 728 728 729 729 730 730 730 730 730 730 730 731 731 731 731 731 731 731 732 732 733 733 733 733 734 734 734 734 735 736 737 738 739 741 742 742 743 744 745 745 746 747 748 749 751 752 753 755 756 757 759 760 762 763 764 766 767 767 768
729 728 728 728 728 727 727 727 726 726 726 726 726 727 727 727 727 727 728 728 728 728 729 729 729 729 729 729 730 730 731 731 731 732 732 732 732 733 734 734 735 736 737 738 739 740 740 741 742 743 744 745 746 747 748 749 751 752 753 755 756 758 759 761 762 763 764 765 766
727 727 727 726 726 725 725 724 724 724 724 724 724 724 725 725 725 725 725 725 726 726 726 726 727 727 727 727 727 728 728 729 729 729 729 730 730 731 732 732 733 734 735 735 736 737 737 738 739 741 742 743 744 745 746 747 748 750 751 753 754 756 757 758 760 761 762 763 763
726 726 725 725 724 723 723 723 722 722 722 722 722 722 722 722 723 723 723 723 723 723 723 724 724 724 725 725 725 726 726 726 726 727 727 727 728 729 729 730 731 731 732 732 733 734 735 736 737 738 739 741 742 743 744 745 747 748 749 751 752 753 755 756 757 758 759 760 761
725 725 724 723 722 722 721 721 721 720 720 720 720 720 720 720 720 721 721 720 720 721 721 721 722 722 722 722 723 723 723 724 724 724 725 725 726 726 727 727 728 729 729 730 731 732 733 734 735 736 737 738 739 741 742 743 744 746 747 749 750 751 752 753 755 756 757 757 759
724 723 722 722 721 720 720 719 719 718 718 718 718 717 717 717 718 718 718 718 718 718 718 718 719 719 719 720 720 720 721 721 722 722 722 722 723 723 724 725 726 727 727 728 729 730 731 732 733 734 735 736 737 738 740 741 742 744 745 747 748 749 750 751 752 753 754 755 756
722 722 721 720 719 718 718 717 717 717 716 716 715 715 715 715 715 715 715 715 716 716 716 716 716 716 716 716 717 717 718 718 719 719 719 720 720 721 722 723 724 724 725 726 727 728 729 730 731 732 733 734 735 736 737 739 740 742 743 745 746 747 748 749 750 751 752 752 753
721 720 719 718 717 717 716 716 715 714 714 713 713 713 713 712 712 712 713 713 713 713 713 713 713 713 713 713 713 714 715 716 716 717 717 717 718 719 720 721 722 722 723 723 724 726 727 728 729 730 732 732 733 735 736 737 738 740 741 742 743 744 745 746 747 748 749 750 751
719 718 717 717 716 715 714 713 713 712 712 711 711 710 710 710 710 710 710 710 710 710 711 711 711 711 711 711 711 712 712 713 713 714 715 715 716 717 718 719 720 720 721 722 722 723 725 727 728 729 730 731 732 733 734 735 736 737 739 740 741 742 743 744 745 746 747 747 748
717 716 715 715 714 713 712 712 711 710 709 709 708 708 707 707 707 707 707 708 708 708 708 709 709 709 710 709 709 709 710 710 711 712 712 713 714 715 716 717 717 718 719 719 721 722 723 725 726 727 728 729 731 732 732 733 734 735 737 737 739 740 741 742 742 743 744 745 746
715 714 713 712 712 711 710 710 709 708 707 707 706 706 705 705 705 705 705 705 706 706 707 707 707 708 708 708 708 708 708 708 709 709 710 711 712 712 713 714 715 716 717 717 719 721 722 723 724 725 726 727 729 730 731 732 732 733 734 736 737 738 739 740 740 741 742 742 743
714 713 712 711 710 709 708 708 707 706 706 705 704 704 703 703 703 703 702 703 703 704 704 705 705 706 706 706 706 706 706 707 707 707 708 709 709 710 711 712 712 713 714 715 717 719 720 722 723 724 724 725 726 727 728 730 731 732 733 734 735 736 737 737 738 739 739 740 741
713 712 711 710 709 708 707 706 706 705 704 703 702 702 701 701 701 700 700 700 701 702 702 702 703 703 704 704 704 704 704 704 705 706 706 707 707 708 709 709 710 710 711 713 715 717 718 720 721 722 723 723 724 725 726 727 729 730 731 732 733 733 734 735 736 736 737 738 738
711 710 709 708 707 706 706 705 704 703 702 702 701 700 699 699 698 698 698 698 698 699 699 700 700 701 701 701 701 702 702 702 703 704 704 705 705 706 706 707 708 708 709 711 713 714 716 717 718 720 721 721 722 723 724 726 727 728 729 730 730 731 732 732 733 734 735 736 736
710 709 707 707 706 705 704 703 703 702 701 700 700 699 698 697 696 696 695 696 696 696 697 697 698 698 698 699 699 700 700 700 701 702 702 703 703 704 704 705 706 707 707 709 711 712 713 715 716 717 718 719 720 721 722 723 725 726 727 727 728 728 729 730 731 732 732 733 734
708 707 706 705 704 703 702 702 701 700 700 699 698 697 696 695 694 693 693 693 693 694 694 695 696 696 696 697 697 697 698 698 699 700 700 701 701 702 702 703 704 705 706 707 709 710 711 712 713 715 716 717 717 718 719 720 722 723 724 724 725 726 727 727 728 729 730 731 732
707 705 704 703 702 701 700 699 699 698 698 697 697 696 695 694 693 692 692 692 692 692 692 693 693 693 694 694 695 695 696 696 697 697 698 699 699 700 701 702 702 703 704 705 707 708 709 710 711 712 713 715 715 716 717 718 719 720 721 722 722 723 724 725 726 727 727 728 729
705 704 703 701 700 699 698 697 697 696 696 695 694 694 693 692 692 691 691 690 690 690 690 690 691 691 692 692 693 693 693 694 694 695 696 697 697 698 699 700 701 701 702 703 704 705 707 707 708 710 711 712 713 713 714 716 717 718 719 720 721 721 722 723 723 724 725 726 726
704 702 701 700 698 697 696 695 695 694 693 692 692 691 691 691 690 690 689 689 689 688 688 688 688 689 689 690 691 691 691 692 692 693 693 694 695 696 697 698 698 699 700 701 702 703 704 705 706 707 709 710 711 712 712 713 715 716 717 718 718 719 720 721 721 722 722 723 724
702 701 700 698 697 696 694 693 692 692 691 690 689 689 689 689 688 688 688 687 687 687 687 687 687 687 687 688 688 689 689 689 690 691 691 692 693 694 695 695 696 697 698 699 700 701 702 703 704 706 707 708 709 709 710 711 712 713 715 715 716 717 717 718 719 719 720 721 722
702 700 699 697 695 694 693 692 691 690 689 688 687 687 686 686 686 686 686 686 686 686 685 685 685 685 686 686 686 687 687 687 688 688 689 690 691 691 692 692 693 694 696 697 697 699 700 701 702 703 705 706 707 707 707 708 710 711 712 713 714 715 715 716 717 717 718 719 719
701 700 698 696 694 693 692 690 689 688 687 686 685 685 684 684 684 684 684 684 684 684 683 683 683 683 683 683 684 684 685 685 686 687 687 687 688 689 689 690 691 692 693 694 695 696 697 699 700 701 703 704 704 705 706 707 707 709 710 711 712 712 713 714 715 715 716 716 717
699 698 697 695 693 692 690 689 688 686 685 684 683 683 682 682 682 682 682 682 682 682 682 681 681 681 681 682 682 682 683 683 684 684 685 685 686 686 687 688 689 690 691 692 693 694 695 696 697 699 700 701 702 703 704 705 706 707 708 709 709 710 711 712 713 713 714 714 714
697 696 695 693 692 690 689 687 686 685 683 682 682 681 681 680 680 679 679 680 680 680 679 679 679 679 679 680 680 681 681 681 682 682 683 683 683 684 685 686 686 687 688 690 691 692 693 694 695 697 698 699 700 701 702 702 703 704 705 706 707 708 709 710 711 711 712 712 712
695 694 693 692 690 689 687 686 684 683 682 681 680 679 679 678 678 677 677 677 677 677 677 677 677 677 678 678 678 679 679 679 680 680 681 681 682 682 683 683 684 685 686 687 688 689 690 692 693 694 695 697 697 698 700 700 701 702 702 704 705 706 707 708 709 709 709 710 710
694 692 691 690 688 687 686 684 682 681 680 680 678 678 677 677 676 676 676 676 676 676 676 676 676 676 676 676 677 677 677 677 677 678 679 679 680 680 681 681 682 683 684 685 686 687 688 689 690 692 693 694 695 696 697 698 699 699 700 701 702 704 705 706 707 707 707 708 708
Wind_Speed
25 25 25 24 23 23 22 22 22 22 22 21 21 21 20 19 19 19 19 20 20 21 21 21 22 23 24 26 28 30 32 33 33 34 34 33 33 33 33 33 33 33 32 31 29 28 28 28 26 25 24 24 25 24 23 23 23 22 21 20 19 19 19 19 19 19 20 20 19
25 25 24 24 23 23 22 21 21 21 21 21 22 21 21 20 19 19 19 20 21 22 22 22 23 24 24 26 28 30 31 32 33 34 34 33 33 34 33 33 33 34 33 32 30 28 28 28 26 25 24 23 24 24 23 23 23 22 21 21 20 19 18 19 19 20 21 21 20
24 24 24 23 23 22 21 21 21 21 21 21 22 21 21 21 20 20 20 20 21 22 22 23 23 24 25 26 27 29 30 32 33 33 33 33 33 33 33 34 34 34 34 33 32 30 28 28 27 26 24 23 24 24 23 23 23 22 22 21 20 19 18 19 19 20 21 21 21
22 23 23 23 23 23 22 21 21 21 21 21 21 21 21 21 20 20 20 21 21 21 22 23 23 23 24 25 26 28 30 31 32 33 33 33 33 32 33 33 33 34 34 34 33 31 29 28 27 26 25 24 25 25 24 22 23 22 22 21 20 19 19 19 19 19 20 20 21
22 22 22 23 23 23 23 22 21 20 20 20 20 20 20 20 20 20 20 20 21 22 22 23 22 23 23 24 26 27 29 30 31 32 33 33 33 32 32 33 33 34 34 34 34 33 31 29 27 26 25 25 25 25 25 23 23 22 22 21 21 20 20 19 19 19 20 20 20
21 21 22 22 23 23 22 22 21 20 19 19 19 19 19 20 20 21 21 22 22 22 22 22 22 23 23 24 26 27 28 30 31 32 32 33 33 32 32 32 33 33 34 34 34 34 32 30 27 26 25 25 25 25 25 24 23 23 22 22 22 21 20 20 19 19 19 19 20
20 20 20 21 21 22 22 21 20 20 19 19 19 19 20 20 20 21 22 23 22 22 23 24 24 24 24 25 26 27 28 29 30 31 32 33 33 32 32 32 32 33 33 34 34 33 33 31 29 27 26 25 25 25 25 24 24 24 23 22 22 22 22 21 21 20 20 20 20
18 19 19 19 20 21 21 21 20 20 19 19 20 20 21 21 21 21 22 22 22 23 25 26 26 27 27 27 27 28 28 29 30 31 32 33 33 33 33 32 32 33 33 33 33 34 33 32 30 28 27 26 25 25 25 26 26 25 25 24 23 22 23 23 23 22 21 21 22
16 17 17 18 19 20 21 22 22 21 21 21 21 22 22 23 23 23 23 23 23 24 25 26 28 29 29 29 29 29 30 30 30 31 32 33 33 33 33 33 32 32 33 33 34 35 35 33 31 30 28 27 26 26 27 28 28 27 26 25 23 22 23 23 24 23 23 22 22
15 15 16 16 17 18 20 21 22 23 23 23 23 23 23 24 24 25 25 26 25 25 25 26 28 29 30 31 31 31 32 31 31 31 32 32 33 34 34 34 34 33 33 34 35 35 35 34 32 30 29 28 27 27 28 29 29 29 28 26 24 23 23 23 23 24 23 23 24
16 15 15 16 16 18 19 20 21 22 23 24 25 25 25 25 25 26 26 26 26 26 27 27 28 29 30 31 32 32 33 33 32 31 31 32 33 34 34 35 35 35 35 35 35 35 35 33 32 31 30 28 27 27 28 29 30 31 29 27 25 24 24 23 23 23 24 24 24
15 15 16 16 17 18 19 20 21 22 23 24 25 25 25 25 25 25 26 26 27 27 27 28 28 28 29 30 31 31 32 33 32 32 31 32 32 33 34 35 36 36 36 36 35 34 34 34 33 32 31 29 28 28 29 30 31 31 30 29 27 26 25 25 24 24 23 23 24
14 15 15 16 17 18 19 20 20 21 22 23 23 24 24 24 24 24 24 25 26 26 26 27 27 28 28 28 28 28 29 30 31 31 30 31 32 32 33 34 35 35 35 36 35 34 34 34 33 33 32 30 29 29 30 31 32 31 30 29 28 27 27 27 27 25 24 23 24
14 15 15 16 17 17 19 20 20 20 20 21 21 22 22 22 22 22 23 24 25 25 25 25 25 26 27 27 26 25 26 27 27 28 28 29 30 31 31 32 32 33 34 34 34 34 33 33 33 34 33 33 31 31 32 33 33 32 31 30 30 29 29 29 28 27 25 24 24
14 14 15 16 16 17 18 19 20 20 20 20 20 21 21 21 21 21 22 23 23 24 23 23 23 24 25 25 24 24 24 24 25 25 26 27 27 28 29 30 30 31 32 32 32 33 34 34 34 34 35 35 34 34 34 34 33 33 32 32 32 31 30 30 29 28 27 26 25
14 14 15 15 16 17 18 19 20 20 20 20 20 20 20 20 20 21 22 23 23 23 23 23 22 22 22 23 23 23 23 23 24 24 25 25 25 26 27 28 29 30 31 32 33 33 34 35 35 36 36 37 37 36 35 34 34 33 33 33 33 32 32 31 29 29 28 28 27
15 15 16 16 17 18 19 20 21 21 21 21 21 20 20 20 20 20 21 22 22 23 23 23 23 23 22 22 22 22 22 23 24 24 24 25 25 26 26 28 29 30 32 34 34 35 36 36 37 37 37 38 38 37 36 35 34 34 34 33 33 33 32 31 29 29 28 28 28
15 16 16 17 18 19 20 21 22 22 22 22 22 21 21 20 20 19 20 21 22 22 23 23 23 23 23 23 22 22 23 24 24 24 25 25 26 27 28 29 30 32 33 35 36 37 37 37 37 37 37 37 37 37 36 35 35 34 34 33 33 33 32 31 30 29 28 28 28
15 15 16 17 18 19 21 22 23 23 23 23 23 23 22 22 21 20 20 21 22 22 23 23 23 22 22 22 22 22 23 23 25 25 25 26 27 28 29 30 31 32 34 36 37 38 38 38 37 37 37 37 36 36 36 35 35 34 34 33 33 33 32 32 31 30 29 29 29
16 16 16 17 18 19 20 21 22 23 23 23 23 23 23 23 22 22 22 22 22 22 23 23 23 22 22 22 22 22 23 23 24 25 26 27 28 29 30 31 32 33 34 36 37 38 37 37 37 37 37 37 36 36 35 35 34 33 33 32 32 32 32 32 32 31 31 30 30
16 17 17 18 18 19 20 20 21 22 22 22 22 22 22 22 22 22 23 23 22 22 23 23 23 23 23 23 23 23 23 23 24 25 26 27 28 30 30 31 32 32 34 35 37 37 37 36 36 36 37 37 37 36 35 34 33 33 32 32 32 32 32 32 33 33 32 32 31
17 17 18 18 18 19 19 20 20 20 21 21 22 22 22 22 22 22 23 23 23 22 22 23 23 24 24 24 24 24 24 24 24 25 26 27 28 29 30 31 31 32 33 34 36 36 36 36 36 36 36 36 36 36 35 34 33 32 31 31 31 31 32 32 33 33 33 33 33
17 17 17 17 18 18 18 18 19 19 20 21 21 22 22 22 22 22 22 22 23 23 23 23 23 24 24 25 25 25 25 24 24 25 25 26 27 28 29 30 31 32 32 33 35 36 36 35 35 35 35 35 35 35 35 34 33 32 31 30 30 31 31 32 32 33 33 34 34
18 17 17 17 17 18 18 18 18 19 19 20 21 21 21 22 22 22 22 22 23 23 23 23 23 23 23 24 24 25 25 25 25 25 25 26 26 27 28 29 30 31 32 33 34 35 35 35 34 34 34 34 34 34 34 33 32 31 31 30 30 30 30 31 31 32 33 33 33
19 18 18 17 17 18 18 18 19 19 20 20 20 20 21 21 21 21 21 22 22 23 23 23 23 22 22 22 23 24 25 25 25 25 25 25 25 26 27 27 28 30 31 32 33 33 34 34 33 33 33 33 33 33 33 32 32 31 31 30 29 29 29 29 30 31 32 33 33
19 19 19 19 19 19 19 19 20 20 21 21 20 20 20 20 20 20 20 21 21 22 22 22 22 22 21 21 22 23 23 24 25 25 25 24 25 25 26 27 27 29 30 31 30 31 31 32 32 32 32 33 32 31 31 31 31 31 31 30 29 28 28 27 28 29 30 32 33
20 20 20 21 21 20 20 21 21 21 21 21 21 21 21 20 20 20 20 20 21 21 21 21 21 21 20 20 21 22 23 23 24 25 25 25 25 25 26 26 27 29 30 30 29 29 30 31 31 30 31 32 32 31 30 29 30 30 30 29 28 28 27 27 27 27 28 29 31
21 21 21 21 22 22 22 22 21 20 20 20 21 21 21 20 20 20 20 20 20 20 20 20 21 20 19 20 21 22 23 23 23 24 25 25 26 26 26 26 27 29 30 30 29 29 30 31 31 31 31 31 31 31 30 29 28 28 28 28 28 27 27 27 27 26 26 26 27
22 22 21 22 22 23 23 23 22 21 21 20 20 20 20 20 20 20 20 20 20 19 19 19 20 19 20 20 21 21 22 23 23 23 24 24 25 26 26 26 26 27 28 29 29 29 30 31 32 32 32 30 30 30 29 27 26 25 25 27 26 27 27 27 27 25 24 23 24
24 23 22 22 23 23 23 23 22 22 21 20 19 19 20 20 20 20 20 20 20 20 20 20 19 19 20 20 20 20 21 22 22 23 23 23 24 25 25 25 25 26 26 27 28 29 30 31 32 33 33 31 30 29 28 27 25 24 24 25 25 26 26 26 26 25 24 23 23
25 24 24 23 23 23 23 23 22 22 21 20 19 19 19 20 20 20 20 20 21 21 20 20 20 20 20 20 20 20 20 21 21 22 23 23 23 24 24 24 25 25 26 26 27 29 30 31 32 33 34 33 31 29 28 28 26 25 24 24 25 25 26 25 25 25 25 24 23
25 25 24 24 23 23 23 22 21 21 20 20 19 19 19 20 20 20 20 20 20 20 20 20 20 20 20 20 20 20 20 20 21 21 22 22 23 23 23 23 24 25 25 26 27 28 30 31 32 33 34 34 32 30 29 28 27 26 25 24 25 26 26 26 25 25 25 25 24
24 23 23 23 24 24 23 22 21 20 20 19 19 19 19 20 19 19 19 19 18 19 19 20 20 20 20 20 20 20 20 20 20 21 21 22 22 22 22 23 23 24 25 26 27 28 29 31 32 33 34 34 32 31 29 28 27 25 24 24 25 26 26 26 25 25 25 25 24
23 23 23 23 23 23 23 22 20 19 19 19 19 19 20 19 19 19 18 18 18 18 19 19 20 20 20 20 20 20 20 20 20 21 21 21 22 22 22 23 22 23 24 25 27 28 29 30 32 33 34 34 33 31 30 28 27 25 23 23 24 24 25 26 26 26 25 25 24
21 21 22 22 23 23 22 21 20 19 19 19 19 19 19 19 19 19 18 18 18 18 18 19 19 19 19 20 20 20 20 20 20 20 21 21 22 22 23 23 22 22 23 25 26 28 29 30 31 32 33 33 32 31 29 29 27 26 24 23 23 24 24 25 26 26 25 25 24
21 21 21 22 22 22 21 21 20 19 19 19 19 19 19 19 18 18 18 17 17 17 18 18 18 18 19 19 20 20 21 21 21 20 21 21 21 22 23 23 23 23 23 24 26 27 29 30 31 32 32 33 31 29 28 28 26 25 25 24 24 24 24 24 25 25 25 25 24
22 22 22 22 22 22 21 21 20 19 19 19 19 19 19 18 18 17 17 17 17 17 18 18 18 18 19 19 19 20 20 21 20 20 21 21 21 22 23 23 23 23 23 24 25 27 28 29 30 31 32 32 30 28 26 26 25 24 24 24 24 24 23 23 23 24 25 26 26
23 23 23 23 23 23 22 21 20 19 19 19 19 18 18 17 17 16 16 16 17 17 18 18 18 18 19 19 19 20 20 20 20 21 21 21 22 22 22 22 22 23 23 24 25 26 28 29 30 31 32 31 30 29 26 24 23 23 23 23 22 23 22 22 22 22 24 26 27
23 23 23 23 23 23 23 22 21 20 20 19 19 18 17 16 16 16 16 16 17 17 18 18 18 18 18 18 18 19 19 20 20 21 21 21 21 21 22 22 22 22 22 24 25 26 27 28 30 31 32 31 30 29 27 24 22 22 21 21 21 21 21 21 21 20 22 24 25
23 23 23 23 23 23 24 23 22 21 20 19 18 17 17 16 16 15 15 15 16 17 17 17 18 18 18 18 18 18 19 19 20 21 21 21 21 21 21 22 22 22 22 23 25 26 27 28 30 31 31 31 30 29 27 24 22 21 20 20 19 19 19 20 20 20 20 21 22
23 23 23 23 23 23 23 23 23 22 20 19 18 17 17 16 16 15 15 15 16 16 16 16 17 17 17 17 17 18 18 19 19 20 20 21 21 21 21 21 21 21 22 23 24 26 27 28 29 31 31 31 30 29 27 24 21 20 20 19 19 18 18 18 19 19 19 20 20
Wind_Direction
230 230 229 230 230 231 232 232 231 231 230 230 230 231 231 229 229 228 226 225 224 223 223 222 221 221 221 220 219 218 217 217 216 216 216 216 217 217 217 217 217 215 214 213 211 210 208 206 205 205 205 203 202 201 201 200 198 197 197 199 202 204 206 208 210 212 213 214 215
231 230 230 230 230 230 231 231 231 230 229 229 229 230 230 230 229 228 226 225 225 225 224 224 223 223 223 222 221 220 219 218 217 217 217 216 217 217 217 217 217 216 215 213 211 209 208 206 205 204 204 203 202 201 201 201 199 198 198 200 202 203 206 210 214 215 216 216 217
232 231 230 230 229 229 229 230 230 229 229 229 229 230 230 230 230 229 227 226 226 226 225 225 225 224 224 223 222 221 220 219 219 218 217 217 217 217 217 217 217 216 215 213 211 210 208 206 205 204 204 203 201 201 200 200 199 198 198 200 201 203 207 212 215 217 217 218 218
234 232 231 230 229 228 229 229 229 229 229 229 230 230 230 231 231 230 229 228 227 226 225 225 225 225 224 223 222 221 221 221 220 219 218 218 217 217 217 217 216 216 215 214 212 210 209 206 205 204 204 203 201 200 199 198 198 198 199 200 201 205 209 213 215 216 217 218 218
235 234 232 232 231 230 230 231 231 230 230 230 230 230 230 231 231 230 229 228 227 227 227 226 225 225 224 223 222 222 222 221 220 220 220 219 218 217 217 216 216 215 215 213 212 210 208 206 204 204 204 203 202 201 199 198 196 197 198 200 203 206 210 213 214 215 215 216 217
238 237 235 235 234 233 232 233 232 232 231 231 229 229 229 230 230 229 229 228 228 228 227 226 225 225 224 223 222 222 222 221 220 220 220 220 220 218 217 216 216 215 214 213 211 210 207 205 204 204 205 203 203 202 200 198 196 196 198 201 205 208 211 213 214 213 213 214 215
242 240 238 237 236 234 233 233 233 233 232 232 230 229 229 229 229 229 229 229 229 227 226 225 224 223 223 222 222 221 221 221 220 220 219 219 219 219 217 216 216 215 213 212 210 208 207 205 204 204 204 203 202 201 200 197 196 196 199 203 207 210 212 213 213 213 213 214 215
246 244 243 241 238 236 235 234 233 233 232 232 231 230 230 229 229 228 228 228 227 226 225 225 224 223 222 222 221 221 220 220 220 219 219 219 218 218 217 216 215 214 213 211 209 207 206 205 205 205 204 202 201 200 198 197 197 199 202 206 209 211 212 213 213 213 214 215 215
248 247 246 244 241 239 237 235 234 233 232 233 233 232 232 231 230 228 227 226 225 225 224 224 223 223 222 222 221 221 220 220 219 219 218 218 217 216 216 215 213 213 212 211 209 207 206 205 205 205 204 202 201 200 198 198 199 202 206 208 210 212 212 213 213 214 215 216 216
249 249 247 245 242 241 239 237 235 234 234 234 235 234 233 232 230 229 228 227 227 225 224 223 222 222 221 221 221 221 220 219 219 218 217 217 216 215 214 213 212 211 210 209 208 207 205 205 205 205 205 203 202 200 199 199 202 205 208 210 211 211 212 213 214 214 215 217 217
251 250 248 246 244 241 239 238 236 235 235 235 236 235 234 233 231 230 229 229 228 227 225 225 223 221 220 219 219 220 220 219 218 217 217 216 216 215 213 212 211 210 209 208 207 205 204 204 205 205 205 204 202 200 200 201 204 207 209 211 211 211 211 212 213 214 215 217 218
252 251 250 248 246 243 241 238 238 237 237 237 237 236 235 235 233 232 231 231 230 230 230 228 226 224 222 221 220 219 219 218 217 217 216 216 216 215 214 213 212 210 209 207 205 204 203 204 205 205 204 203 202 201 201 203 206 208 210 211 211 211 212 213 213 214 215 217 218
255 254 252 250 248 246 243 241 240 240 240 240 240 239 239 238 237 236 235 234 234 234 234 233 231 229 227 225 223 221 220 219 218 217 217 216 216 215 213 212 211 210 208 207 205 204 204 204 205 205 204 203 202 202 204 206 208 209 210 211 211 212 213 214 214 214 215 216 218
260 257 255 253 250 248 246 244 243 244 244 244 244 243 243 242 241 239 238 238 237 237 237 236 234 232 231 229 228 226 224 222 221 219 218 217 216 214 213 212 211 209 208 207 206 205 205 205 205 205 204 203 203 205 206 208 209 210 211 211 211 212 214 215 215 215 215 216 217
263 259 256 254 251 249 247 246 246 246 246 247 247 246 245 244 243 241 240 240 240 240 239 237 236 234 233 231 230 229 228 227 224 223 221 219 217 214 212 211 210 210 209 208 208 208 208 207 207 206 206 205 206 207 208 209 211 212 212 212 213 213 215 216 216 216 215 216 218
264 260 257 254 251 248 247 246 246 247 247 247 248 247 246 245 244 242 241 241 241 241 240 238 237 236 234 232 231 231 230 229 227 224 222 220 217 215 213 212 211 211 210 210 210 210 210 210 209 208 208 208 208 208 209 210 211 213 214 214 214 215 216 217 217 217 217 218 219
265 262 258 254 251 249 247 247 247 248 248 248 248 247 245 244 244 243 242 241 240 240 239 238 237 236 235 234 232 230 229 228 226 224 221 220 218 216 215 215 214 214 213 212 211 211 211 211 210 210 210 210 210 210 210 211 212 213 214 215 216 217 217 218 218 218 218 219 221
268 265 262 258 255 252 251 250 250 250 250 250 250 248 247 245 243 242 242 240 238 237 237 237 236 235 235 234 232 229 227 226 224 223 221 220 219 219 218 218 218 217 215 214 213 212 211 211 210 210 210 210 210 211 211 212 213 214 215 215 216 218 218 219 219 219 219 220 222
272 270 267 263 261 258 257 255 254 253 253 252 252 251 249 247 244 243 242 240 238 236 235 235 235 234 234 233 231 228 226 224 224 223 222 222 222 222 222 221 220 218 216 215 214 213 212 211 210 210 209 210 210 211 212 213 214 214 215 216 217 218 219 220 220 220 221 222 224
278 274 271 269 266 265 262 261 259 257 256 255 254 253 252 249 246 244 242 240 239 237 235 234 234 233 232 230 228 226 225 224 224 224 224 224 224 223 223 221 220 218 217 215 214 213 212 211 210 210 210 210 210 211 212 213 213 214 215 216 218 219 220 221 221 222 222 224 225
284 281 278 275 272 269 266 265 263 261 259 256 254 253 252 250 247 244 242 241 240 237 235 234 233 233 231 229 226 225 224 225 225 225 226 225 225 224 223 221 219 218 216 215 214 213 212 211 210 210 210 211 211 211 212 212 213 214 215 217 219 220 222 222 223 223 224 225 226
290 287 284 280 276 272 269 267 265 262 260 258 255 253 251 249 247 245 244 243 240 237 235 233 233 232 230 228 226 225 225 225 225 226 226 226 225 223 222 220 218 217 216 215 214 212 212 211 211 211 211 211 212 212 212 212 212 214 215 217 219 221 222 223 224 225 226 227 228
294 291 287 283 279 276 272 269 266 263 260 258 256 253 251 249 248 247 245 242 240 237 234 233 232 231 230 229 227 226 225 225 225 226 226 225 224 222 221 219 218 217 216 215 214 212 211 211 211 211 211 211 212 212 212 212 212 213 215 217 219 221 222 224 225 226 228 229 230
296 292 287 283 280 277 274 271 267 263 259 257 256 254 252 250 248 246 244 241 239 237 235 234 232 231 230 229 227 226 225 224 224 224 224 223 222 220 219 218 218 217 216 216 215 213 212 211 211 211 211 212 212 213 213 213 213 214 215 216 218 220 222 224 226 227 229 230 231
302 296 290 284 280 277 274 271 267 263 260 258 256 254 252 249 246 244 241 239 238 237 236 235 234 232 230 229 227 226 225 224 223 222 221 220 220 219 218 217 217 217 217 217 215 214 213 212 212 211 211 212 212 213 213 214 214 215 215 216 217 218 220 223 225 227 229 231 232
308 301 295 289 283 278 273 269 267 264 263 260 257 254 251 248 245 243 240 239 238 237 236 235 234 232 231 229 227 226 224 223 223 222 220 219 218 217 217 217 217 217 217 217 215 214 213 212 212 212 212 211 212 212 213 214 215 215 216 216 217 217 219 220 223 226 229 231 233
311 304 299 294 288 281 276 272 269 266 264 261 258 255 251 248 245 243 240 239 238 237 235 234 232 231 230 229 227 225 223 223 222 221 220 219 218 216 216 216 217 217 217 216 215 214 213 214 213 211 211 211 211 211 212 213 215 216 216 216 217 218 219 220 222 224 227 230 233
315 309 302 296 290 284 280 277 272 268 264 262 259 256 253 249 245 242 240 239 237 235 233 232 231 229 228 227 225 224 223 222 221 221 221 220 219 217 216 216 217 218 217 216 214 215 216 217 215 213 211 211 211 211 212 212 214 215 215 216 217 218 219 220 222 223 225 228 231
318 313 306 298 291 287 283 279 275 271 267 264 261 258 254 250 246 242 240 238 235 233 230 229 228 227 225 225 224 224 223 222 221 221 220 220 219 218 218 217 217 218 218 217 215 216 218 218 216 214 212 210 210 211 211 212 212 213 214 216 217 218 219 220 222 223 224 225 228
318 314 308 301 295 290 286 281 278 275 272 268 264 259 255 250 246 242 239 236 234 231 230 228 226 225 224 223 223 223 222 222 221 221 220 220 219 219 218 217 218 219 218 216 216 218 219 218 217 215 212 209 209 210 210 211 211 212 213 215 216 217 218 219 220 222 223 224 225
317 313 308 303 298 292 288 285 282 279 275 271 266 261 256 251 246 242 239 236 234 232 231 228 226 225 224 224 223 223 222 222 222 221 220 220 220 219 219 219 219 219 219 217 217 218 219 219 218 216 213 210 208 208 210 211 212 212 212 213 215 216 217 218 220 221 222 223 224
316 313 308 303 298 294 291 289 285 281 276 271 267 262 257 253 249 245 242 238 235 233 230 227 226 225 225 224 224 223 223 222 222 221 220 220 220 220 220 220 220 220 219 218 219 219 220 219 218 217 214 211 208 208 210 211 212 213 214 215 216 217 218 219 221 222 222 223 222
314 311 306 301 297 294 292 289 286 282 277 272 266 262 259 255 252 248 244 239 235 232 229 226 225 224 224 224 224 224 224 223 222 221 220 220 220 221 221 222 222 222 220 219 220 220 220 220 219 218 216 213 210 208 208 209 211 211 213 215 217 219 219 220 221 222 222 222 221
313 309 305 300 297 294 291 288 285 281 277 272 267 263 259 256 253 249 245 240 236 233 231 229 227 227 226 226 225 225 225 224 222 221 220 220 220 221 222 223 223 222 221 220 221 221 221 220 219 218 217 215 212 209 207 207 209 211 212 214 217 219 220 221 222 223 222 221 221
313 308 304 299 296 293 290 287 284 280 276 271 267 263 259 256 252 249 246 242 239 236 233 232 230 229 229 228 227 226 226 225 224 222 220 220 221 222 223 223 224 223 221 221 221 221 221 221 219 218 218 216 214 209 205 205 207 210 212 213 216 218 220 222 222 223 222 221 220
313 308 304 299 296 292 289 286 283 280 275 271 268 264 260 256 253 250 247 244 240 237 235 233 231 230 229 229 228 227 227 226 226 224 222 220 220 222 223 224 224 223 222 221 221 221 221 221 220 219 218 217 215 210 205 203 205 208 211 215 216 217 219 220 221 222 222 222 221
311 309 306 302 298 293 289 286 282 279 275 272 269 265 261 257 253 250 247 243 240 238 236 234 232 230 228 227 227 227 227 226 225 225 224 222 221 221 223 224 224 223 222 221 221 221 221 221 220 219 217 217 216 212 207 203 204 207 210 213 216 218 218 219 221 222 223 223 224
310 308 306 303 301 297 293 288 283 279 275 273 271 267 262 258 253 249 245 240 238 237 236 235 232 230 228 227 228 228 228 226 226 225 225 225 223 222 222 223 223 223 222 221 221 221 221 221 220 219 217 217 217 215 211 206 205 206 208 210 213 215 217 219 221 223 224 225 226
309 307 305 303 302 300 297 293 287 281 278 275 273 269 263 257 252 248 244 239 236 236 236 235 233 232 230 228 228 229 229 227 227 226 226 226 225 223 222 222 223 222 221 220 220 221 221 221 220 219 218 217 217 216 215 211 209 207 207 209 212 215 217 220 221 223 225 226 227
309 307 305 304 302 301 300 297 292 286 281 277 274 269 264 258 254 249 244 239 236 235 236 236 235 233 231 229 229 229 229 228 227 227 227 227 226 225 223 223 223 222 221 220 220 221 221 221 220 219 218 217 217 217 216 215 212 210 209 209 211 214 217 220 221 224 226 227 228
309 307 305 304 303 302 301 299 295 291 285 279 274 270 266 261 256 250 244 240 237 235 235 236 236 234 232 229 229 229 229 229 228 227 226 226 226 225 224 223 223 222 221 220 220 220 221 221 220 219 218 217 216 216 215 215 213 211 209 209 211 213 216 219 222 224 226 227 229